Time,TemperatureF,DewpointF,PressureIn,WindDirection,WindDirectionDegrees,WindSpeedMPH,WindSpeedGustMPH,Humidity,HourlyPrecipIn,Conditions,Clouds,dailyrainin,SoftwareType,DateUTC
2013-11-15 00:00:00,52.8,47.5,29.88,WSW,245,0.0,0.0,82,0.00,,,0.00,Wunderground v.1.13,2013-11-15 06:00:00,
2013-11-15 00:05:00,52.8,47.5,29.88,WSW,245,0.0,0.0,82,0.00,,,0.00,Wunderground v.1.13,2013-11-15 06:05:00,
2013-11-15 00:15:00,53.0,48.3,29.85,WSW,245,0.0,0.0,84,0.00,,,0.00,Wunderground v.1.13,2013-11-15 06:15:00,
2013-11-15 00:20:00,53.1,48.4,29.86,WSW,245,0.0,0.0,84,0.00,,,0.00,Wunderground v.1.13,2013-11-15 06:20:00,
2013-11-15 00:25:00,53.2,48.5,29.85,WSW,245,0.0,0.0,84,0.00,,,0.00,Wunderground v.1.13,2013-11-15 06:25:00,
2013-11-15 00:30:00,53.2,48.5,29.85,WSW,245,0.0,0.0,84,0.00,,,0.00,Wunderground v.1.13,2013-11-15 06:30:00,
2013-11-15 00:39:00,53.2,48.5,29.85,WSW,245,0.0,0.0,84,0.00,,,0.00,Wunderground v.1.13,2013-11-15 06:39:00,
2013-11-15 00:44:00,53.2,48.5,29.85,WSW,245,0.0,0.0,84,0.00,,,0.00,Wunderground v.1.13,2013-11-15 06:44:00,
2013-11-15 00:50:00,53.2,48.5,29.84,WSW,245,0.0,0.0,84,0.00,,,0.00,Wunderground v.1.13,2013-11-15 06:50:00,
2013-11-15 01:00:00,53.2,48.5,29.84,WSW,245,0.0,0.0,84,0.00,,,0.00,Wunderground v.1.13,2013-11-15 07:00:00,
2013-11-15 01:05:00,53.1,48.4,29.85,WSW,245,0.0,0.0,84,0.00,,,0.00,Wunderground v.1.13,2013-11-15 07:05:00,
2013-11-15 01:10:00,53.1,48.4,29.84,WSW,245,0.0,0.0,84,0.00,,,0.00,Wunderground v.1.13,2013-11-15 07:10:00,
2013-11-15 01:20:00,53.0,48.3,29.84,WSW,245,0.0,0.0,84,0.00,,,0.00,Wunderground v.1.13,2013-11-15 07:20:00,
2013-11-15 01:25:00,53.0,48.3,29.84,WSW,245,0.0,0.0,84,0.00,,,0.00,Wunderground v.1.13,2013-11-15 07:25:00,
2013-11-15 01:30:00,52.9,48.2,29.84,WSW,245,0.0,0.0,84,0.00,,,0.00,Wunderground v.1.13,2013-11-15 07:30:00,
2013-11-15 01:40:00,52.9,48.2,29.85,WSW,245,0.0,0.0,84,0.00,,,0.00,Wunderground v.1.13,2013-11-15 07:40:00,
2013-11-15 01:45:00,52.9,48.5,29.84,WSW,245,0.0,0.0,85,0.00,,,0.00,Wunderground v.1.13,2013-11-15 07:45:00,
2013-11-15 01:50:00,52.8,48.4,29.84,WSW,245,0.0,0.0,85,0.00,,,0.00,Wunderground v.1.13,2013-11-15 07:50:00,
2013-11-15 02:00:00,52.9,48.5,29.84,WSW,245,0.0,0.0,85,0.00,,,0.00,Wunderground v.1.13,2013-11-15 08:00:00,
2013-11-15 02:05:00,52.9,48.8,29.84,WSW,245,0.0,0.0,86,0.00,,,0.00,Wunderground v.1.13,2013-11-15 08:05:00,
2013-11-15 02:15:00,53.0,48.9,29.83,WSW,245,0.0,0.0,86,0.00,,,0.00,Wunderground v.1.13,2013-11-15 08:15:00,
2013-11-15 02:20:00,53.1,49.0,29.84,WSW,245,0.0,0.0,86,0.00,,,0.00,Wunderground v.1.13,2013-11-15 08:20:00,
2013-11-15 02:30:00,53.2,49.4,29.83,WSW,245,0.0,0.0,87,0.00,,,0.00,Wunderground v.1.13,2013-11-15 08:30:00,
2013-11-15 02:35:00,53.2,49.4,29.83,WSW,245,0.0,0.0,87,0.00,,,0.00,Wunderground v.1.13,2013-11-15 08:35:00,
2013-11-15 02:40:00,53.3,49.5,29.84,WSW,245,0.0,0.0,87,0.00,,,0.00,Wunderground v.1.13,2013-11-15 08:40:00,
2013-11-15 02:49:00,53.2,49.1,29.83,WSW,245,0.0,0.0,86,0.00,,,0.00,Wunderground v.1.13,2013-11-15 08:49:00,
2013-11-15 02:54:00,53.2,49.1,29.83,WSW,245,0.0,0.0,86,0.00,,,0.00,Wunderground v.1.13,2013-11-15 08:54:00,
2013-11-15 03:00:00,53.1,49.0,29.83,WSW,245,0.0,0.0,86,0.00,,,0.00,Wunderground v.1.13,2013-11-15 09:00:00,
2013-11-15 03:05:00,52.9,48.8,29.83,WSW,245,0.0,0.0,86,0.00,,,0.00,Wunderground v.1.13,2013-11-15 09:05:00,
2013-11-15 03:10:00,52.8,48.7,29.83,WSW,245,0.0,0.0,86,0.00,,,0.00,Wunderground v.1.13,2013-11-15 09:10:00,
2013-11-15 03:15:00,52.7,48.3,29.83,WSW,245,0.0,0.0,85,0.00,,,0.00,Wunderground v.1.13,2013-11-15 09:15:00,
2013-11-15 03:20:00,52.5,48.1,29.82,WSW,245,0.0,0.0,85,0.00,,,0.00,Wunderground v.1.13,2013-11-15 09:20:00,
2013-11-15 03:25:00,52.3,47.9,29.82,WSW,245,0.0,0.0,85,0.00,,,0.00,Wunderground v.1.13,2013-11-15 09:25:00,
2013-11-15 03:34:00,51.9,47.5,29.82,WSW,245,0.0,0.0,85,0.00,,,0.00,Wunderground v.1.13,2013-11-15 09:34:00,
2013-11-15 03:40:00,51.7,47.3,29.81,WSW,245,0.0,0.0,85,0.00,,,0.00,Wunderground v.1.13,2013-11-15 09:40:00,
2013-11-15 03:49:00,51.3,46.9,29.81,WSW,245,0.0,0.0,85,0.00,,,0.00,Wunderground v.1.13,2013-11-15 09:49:00,
2013-11-15 03:54:00,51.1,46.7,29.81,WSW,245,0.0,0.0,85,0.00,,,0.00,Wunderground v.1.13,2013-11-15 09:54:00,
2013-11-15 03:59:00,50.9,46.6,29.81,WSW,245,0.0,0.0,85,0.00,,,0.00,Wunderground v.1.13,2013-11-15 09:59:00,
2013-11-15 04:05:00,50.6,46.3,29.81,WSW,245,0.0,0.0,85,0.00,,,0.00,Wunderground v.1.13,2013-11-15 10:05:00,
2013-11-15 04:15:00,50.2,45.9,29.80,WSW,245,0.0,0.0,85,0.00,,,0.00,Wunderground v.1.13,2013-11-15 10:15:00,
2013-11-15 04:24:00,49.9,45.6,29.80,WSW,245,0.0,0.0,85,0.00,,,0.00,Wunderground v.1.13,2013-11-15 10:24:00,
2013-11-15 04:34:00,49.5,45.5,29.80,WSW,245,0.0,0.0,86,0.00,,,0.00,Wunderground v.1.13,2013-11-15 10:34:00,
2013-11-15 04:39:00,49.3,45.3,29.81,WSW,245,0.0,0.0,86,0.00,,,0.00,Wunderground v.1.13,2013-11-15 10:39:00,
2013-11-15 04:45:00,49.1,45.1,29.81,WSW,245,0.0,0.0,86,0.00,,,0.00,Wunderground v.1.13,2013-11-15 10:45:00,
2013-11-15 04:55:00,48.7,44.7,29.81,WSW,245,0.0,0.0,86,0.00,,,0.00,Wunderground v.1.13,2013-11-15 10:55:00,
2013-11-15 05:00:00,48.6,44.9,29.81,WSW,245,0.0,0.0,87,0.00,,,0.00,Wunderground v.1.13,2013-11-15 11:00:00,
2013-11-15 05:05:00,48.4,44.7,29.81,WSW,245,0.0,0.0,87,0.00,,,0.00,Wunderground v.1.13,2013-11-15 11:05:00,
2013-11-15 05:10:00,48.2,44.5,29.81,WSW,245,0.0,0.0,87,0.00,,,0.00,Wunderground v.1.13,2013-11-15 11:10:00,
2013-11-15 05:15:00,48.0,44.3,29.81,WSW,245,0.0,0.0,87,0.00,,,0.00,Wunderground v.1.13,2013-11-15 11:15:00,
2013-11-15 05:20:00,47.9,44.2,29.81,WSW,245,0.0,0.0,87,0.00,,,0.00,Wunderground v.1.13,2013-11-15 11:20:00,
2013-11-15 05:25:00,47.7,44.0,29.81,WSW,245,0.0,0.0,87,0.00,,,0.00,Wunderground v.1.13,2013-11-15 11:25:00,
2013-11-15 05:34:00,47.4,43.7,29.81,WSW,245,0.0,0.0,87,0.00,,,0.00,Wunderground v.1.13,2013-11-15 11:34:00,
2013-11-15 05:39:00,47.3,43.6,29.81,WSW,245,0.0,0.0,87,0.00,,,0.00,Wunderground v.1.13,2013-11-15 11:39:00,
2013-11-15 05:44:00,47.2,43.5,29.81,WSW,245,0.0,0.0,87,0.00,,,0.00,Wunderground v.1.13,2013-11-15 11:44:00,
2013-11-15 05:50:00,47.0,43.3,29.81,WSW,245,0.0,0.0,87,0.00,,,0.00,Wunderground v.1.13,2013-11-15 11:50:00,
2013-11-15 05:55:00,46.9,43.5,29.81,WSW,245,0.0,0.0,88,0.00,,,0.00,Wunderground v.1.13,2013-11-15 11:55:00,
2013-11-15 06:05:00,46.6,43.2,29.81,WSW,245,0.0,0.0,88,0.00,,,0.00,Wunderground v.1.13,2013-11-15 12:05:00,
2013-11-15 06:14:00,46.5,43.1,29.81,WSW,245,0.0,0.0,88,0.00,,,0.00,Wunderground v.1.13,2013-11-15 12:14:00,
2013-11-15 06:19:00,46.4,43.0,29.81,WSW,245,0.0,0.0,88,0.00,,,0.00,Wunderground v.1.13,2013-11-15 12:19:00,
2013-11-15 06:24:00,46.3,43.2,29.81,WSW,245,0.0,0.0,89,0.00,,,0.00,Wunderground v.1.13,2013-11-15 12:24:00,
2013-11-15 06:29:00,46.3,42.9,29.81,WSW,245,0.0,0.0,88,0.00,,,0.00,Wunderground v.1.13,2013-11-15 12:29:00,
2013-11-15 06:35:00,46.1,43.0,29.81,WSW,245,0.0,0.0,89,0.00,,,0.00,Wunderground v.1.13,2013-11-15 12:35:00,
2013-11-15 06:40:00,46.0,42.9,29.81,WSW,245,0.0,0.0,89,0.00,,,0.00,Wunderground v.1.13,2013-11-15 12:40:00,
2013-11-15 06:50:00,45.8,42.7,29.82,WSW,245,0.0,0.0,89,0.00,,,0.00,Wunderground v.1.13,2013-11-15 12:50:00,
2013-11-15 06:55:00,45.8,42.7,29.82,WSW,245,0.0,0.0,89,0.00,,,0.00,Wunderground v.1.13,2013-11-15 12:55:00,
2013-11-15 07:00:00,45.7,42.6,29.82,WSW,245,0.0,0.0,89,0.00,,,0.00,Wunderground v.1.13,2013-11-15 13:00:00,
2013-11-15 07:09:00,45.5,42.4,29.82,WSW,245,0.0,0.0,89,0.00,,,0.00,Wunderground v.1.13,2013-11-15 13:09:00,
2013-11-15 07:15:00,45.5,42.7,29.82,WSW,245,0.0,0.0,90,0.00,,,0.00,Wunderground v.1.13,2013-11-15 13:15:00,
2013-11-15 07:20:00,45.4,42.6,29.82,WSW,245,0.0,0.0,90,0.00,,,0.00,Wunderground v.1.13,2013-11-15 13:20:00,
2013-11-15 07:29:00,45.5,42.7,29.82,WSW,245,0.0,0.0,90,0.00,,,0.00,Wunderground v.1.13,2013-11-15 13:29:00,
2013-11-15 07:39:00,45.6,42.8,29.82,WSW,245,0.0,0.0,90,0.00,,,0.00,Wunderground v.1.13,2013-11-15 13:39:00,
2013-11-15 07:49:00,45.7,43.2,29.83,WSW,245,0.0,0.0,91,0.00,,,0.00,Wunderground v.1.13,2013-11-15 13:49:00,
2013-11-15 07:55:00,45.8,43.3,29.82,WSW,245,0.0,0.0,91,0.00,,,0.00,Wunderground v.1.13,2013-11-15 13:55:00,
2013-11-15 08:00:00,46.1,43.6,29.82,WSW,245,0.0,0.0,91,0.00,,,0.00,Wunderground v.1.13,2013-11-15 14:00:00,
2013-11-15 08:05:00,46.4,44.2,29.83,WSW,245,0.0,0.0,92,0.00,,,0.00,Wunderground v.1.13,2013-11-15 14:05:00,
2013-11-15 08:14:00,47.3,45.4,29.83,WSW,245,0.0,0.0,93,0.00,,,0.00,Wunderground v.1.13,2013-11-15 14:14:00,
2013-11-15 08:19:00,48.6,47.0,29.83,WSW,245,0.0,0.0,94,0.00,,,0.00,Wunderground v.1.13,2013-11-15 14:19:00,
2013-11-15 08:24:00,49.7,48.0,29.83,WSW,245,0.0,0.0,94,0.00,,,0.00,Wunderground v.1.13,2013-11-15 14:24:00,
2013-11-15 08:34:00,50.8,49.1,29.83,WSW,245,0.0,0.0,94,0.00,,,0.00,Wunderground v.1.13,2013-11-15 14:34:00,
2013-11-15 08:40:00,51.4,49.7,29.83,WSW,245,0.0,0.0,94,0.00,,,0.00,Wunderground v.1.13,2013-11-15 14:40:00,
2013-11-15 08:45:00,52.1,50.7,29.83,WSW,245,0.0,0.0,95,0.00,,,0.00,Wunderground v.1.13,2013-11-15 14:45:00,
2013-11-15 08:50:00,53.2,51.8,29.83,WSW,245,0.0,0.0,95,0.00,,,0.00,Wunderground v.1.13,2013-11-15 14:50:00,
2013-11-15 08:55:00,55.2,53.8,29.83,WSW,245,0.0,0.0,95,0.00,,,0.00,Wunderground v.1.13,2013-11-15 14:55:00,
2013-11-15 09:00:00,56.9,54.6,29.83,WSW,245,0.0,0.0,92,0.00,,,0.00,Wunderground v.1.13,2013-11-15 15:00:00,
2013-11-15 09:09:00,57.5,54.6,29.83,WSW,245,0.0,0.0,90,0.00,,,0.00,Wunderground v.1.13,2013-11-15 15:09:00,
2013-11-15 09:14:00,57.6,54.4,29.83,WSW,245,0.0,0.0,89,0.00,,,0.00,Wunderground v.1.13,2013-11-15 15:14:00,
2013-11-15 09:19:00,57.8,54.6,29.82,WSW,245,0.0,0.0,89,0.00,,,0.00,Wunderground v.1.13,2013-11-15 15:19:00,
2013-11-15 09:29:00,58.5,55.3,29.83,WSW,245,0.0,0.0,89,0.00,,,0.00,Wunderground v.1.13,2013-11-15 15:29:00,
2013-11-15 09:40:00,59.7,56.5,29.83,WSW,245,0.0,0.0,89,0.00,,,0.00,Wunderground v.1.13,2013-11-15 15:40:00,
2013-11-15 09:45:00,61.8,56.9,29.83,WSW,245,0.0,0.0,84,0.00,,,0.00,Wunderground v.1.13,2013-11-15 15:45:00,
2013-11-15 09:50:00,62.3,56.7,29.83,WSW,245,0.0,0.0,82,0.00,,,0.00,Wunderground v.1.13,2013-11-15 15:50:00,
2013-11-15 09:55:00,63.2,57.3,29.83,WSW,245,0.0,0.0,81,0.00,,,0.00,Wunderground v.1.13,2013-11-15 15:55:00,
2013-11-15 10:00:00,63.6,57.3,29.83,WSW,245,1.0,1.0,80,0.00,,,0.00,Wunderground v.1.13,2013-11-15 16:00:00,
2013-11-15 10:05:00,64.1,57.5,29.83,WSW,245,0.0,0.0,79,0.00,,,0.00,Wunderground v.1.13,2013-11-15 16:05:00,
2013-11-15 10:15:00,65.3,57.9,29.83,WSW,245,1.0,1.0,77,0.00,,,0.00,Wunderground v.1.13,2013-11-15 16:15:00,
2013-11-15 10:20:00,65.7,58.3,29.83,WSW,245,1.0,1.0,77,0.00,,,0.00,Wunderground v.1.13,2013-11-15 16:20:00,
2013-11-15 10:25:00,66.0,58.6,29.83,WSW,245,1.0,2.0,77,0.00,,,0.00,Wunderground v.1.13,2013-11-15 16:25:00,
2013-11-15 10:30:00,66.4,58.6,29.83,WSW,245,1.0,1.0,76,0.00,,,0.00,Wunderground v.1.13,2013-11-15 16:30:00,
2013-11-15 10:35:00,66.8,58.6,29.83,WSW,245,1.0,3.0,75,0.00,,,0.00,Wunderground v.1.13,2013-11-15 16:35:00,
2013-11-15 10:44:00,67.3,58.3,29.82,WSW,257,1.0,8.0,73,0.00,,,0.00,Wunderground v.1.13,2013-11-15 16:44:00,
2013-11-15 10:50:00,67.8,58.8,29.82,SW,235,2.0,3.0,73,0.00,,,0.00,Wunderground v.1.13,2013-11-15 16:50:00,
2013-11-15 10:59:00,68.2,58.8,29.82,WSW,251,2.0,2.0,72,0.00,,,0.00,Wunderground v.1.13,2013-11-15 16:59:00,
2013-11-15 11:04:00,68.6,58.4,29.82,WSW,250,1.0,1.0,70,0.00,,,0.00,Wunderground v.1.13,2013-11-15 17:04:00,
2013-11-15 11:09:00,68.8,59.0,29.81,WSW,248,1.0,3.0,71,0.00,,,0.00,Wunderground v.1.13,2013-11-15 17:09:00,
2013-11-15 11:14:00,69.3,59.5,29.81,WSW,247,2.0,2.0,71,0.00,,,0.00,Wunderground v.1.13,2013-11-15 17:14:00,
2013-11-15 11:19:00,69.6,59.0,29.81,WSW,248,2.0,9.0,69,0.00,,,0.00,Wunderground v.1.13,2013-11-15 17:19:00,
2013-11-15 11:25:00,69.9,59.3,29.80,WSW,248,2.0,2.0,69,0.00,,,0.00,Wunderground v.1.13,2013-11-15 17:25:00,
2013-11-15 11:35:00,70.6,59.5,29.80,WSW,247,1.0,4.0,68,0.00,,,0.00,Wunderground v.1.13,2013-11-15 17:35:00,
2013-11-15 11:40:00,70.9,59.4,29.80,WSW,251,3.0,4.0,67,0.00,,,0.00,Wunderground v.1.13,2013-11-15 17:40:00,
2013-11-15 11:45:00,71.2,59.3,29.80,WSW,244,3.0,3.0,66,0.00,,,0.00,Wunderground v.1.13,2013-11-15 17:45:00,
2013-11-15 11:50:00,71.7,59.3,29.79,WSW,250,2.0,6.0,65,0.00,,,0.00,Wunderground v.1.13,2013-11-15 17:50:00,
2013-11-15 11:59:00,72.0,59.6,29.78,WSW,248,1.0,1.0,65,0.00,,,0.00,Wunderground v.1.13,2013-11-15 17:59:00,
2013-11-15 12:05:00,71.7,58.9,29.78,WSW,245,1.0,1.0,64,0.00,,,0.00,Wunderground v.1.13,2013-11-15 18:05:00,
2013-11-15 12:15:00,72.1,58.8,29.77,WSW,252,2.0,2.0,63,0.00,,,0.00,Wunderground v.1.13,2013-11-15 18:15:00,
2013-11-15 12:20:00,72.7,59.8,29.77,WSW,252,1.0,1.0,64,0.00,,,0.00,Wunderground v.1.13,2013-11-15 18:20:00,
2013-11-15 12:25:00,72.4,58.6,29.77,WSW,252,1.0,1.0,62,0.00,,,0.00,Wunderground v.1.13,2013-11-15 18:25:00,
2013-11-15 12:30:00,72.7,59.4,29.77,WSW,250,1.0,2.0,63,0.00,,,0.00,Wunderground v.1.13,2013-11-15 18:30:00,
2013-11-15 12:35:00,73.0,59.2,29.76,WSW,250,2.0,5.0,62,0.00,,,0.00,Wunderground v.1.13,2013-11-15 18:35:00,
2013-11-15 12:44:00,73.3,59.0,29.75,WSW,246,1.0,1.0,61,0.00,,,0.00,Wunderground v.1.13,2013-11-15 18:44:00,
2013-11-15 12:49:00,73.5,60.1,29.75,WSW,245,1.0,3.0,63,0.00,,,0.00,Wunderground v.1.13,2013-11-15 18:49:00,
2013-11-15 12:54:00,73.4,59.1,29.74,WSW,246,1.0,1.0,61,0.00,,,0.00,Wunderground v.1.13,2013-11-15 18:54:00,
2013-11-15 12:59:00,73.4,59.1,29.74,WSW,246,2.0,2.0,61,0.00,,,0.00,Wunderground v.1.13,2013-11-15 18:59:00,
2013-11-15 13:05:00,73.7,59.4,29.74,WSW,245,2.0,2.0,61,0.00,,,0.00,Wunderground v.1.13,2013-11-15 19:05:00,
2013-11-15 13:15:00,73.7,59.4,29.73,WSW,245,1.0,4.0,61,0.00,,,0.00,Wunderground v.1.13,2013-11-15 19:15:00,
2013-11-15 13:20:00,73.9,59.1,29.73,WSW,251,2.0,2.0,60,0.00,,,0.00,Wunderground v.1.13,2013-11-15 19:20:00,
2013-11-15 13:25:00,74.3,59.0,29.73,WSW,249,3.0,3.0,59,0.00,,,0.00,Wunderground v.1.13,2013-11-15 19:25:00,
2013-11-15 13:30:00,74.2,59.4,29.73,WSW,247,2.0,4.0,60,0.00,,,0.00,Wunderground v.1.13,2013-11-15 19:30:00,
2013-11-15 13:35:00,74.4,59.6,29.73,WSW,247,2.0,2.0,60,0.00,,,0.00,Wunderground v.1.13,2013-11-15 19:35:00,
2013-11-15 13:44:00,74.4,59.6,29.72,WSW,244,2.0,2.0,60,0.00,,,0.00,Wunderground v.1.13,2013-11-15 19:44:00,
2013-11-15 13:49:00,74.8,60.0,29.72,SW,233,1.0,1.0,60,0.00,,,0.00,Wunderground v.1.13,2013-11-15 19:49:00,
2013-11-15 13:55:00,74.9,59.6,29.72,SW,232,1.0,1.0,59,0.00,,,0.00,Wunderground v.1.13,2013-11-15 19:55:00,
2013-11-15 14:00:00,75.1,59.3,29.71,SW,231,1.0,1.0,58,0.00,,,0.00,Wunderground v.1.13,2013-11-15 20:00:00,
2013-11-15 14:05:00,74.7,59.4,29.71,SW,231,0.0,0.0,59,0.00,,,0.00,Wunderground v.1.13,2013-11-15 20:05:00,
2013-11-15 14:14:00,75.2,59.4,29.70,WSW,246,1.0,1.0,58,0.00,,,0.00,Wunderground v.1.13,2013-11-15 20:14:00,
2013-11-15 14:19:00,75.6,60.3,29.70,WSW,246,0.0,2.0,59,0.00,,,0.00,Wunderground v.1.13,2013-11-15 20:19:00,
2013-11-15 14:24:00,75.8,59.5,29.70,WSW,248,1.0,4.0,57,0.00,,,0.00,Wunderground v.1.13,2013-11-15 20:24:00,
2013-11-15 14:29:00,75.3,59.5,29.70,WSW,246,1.0,1.0,58,0.00,,,0.00,Wunderground v.1.13,2013-11-15 20:29:00,
2013-11-15 14:34:00,75.3,59.5,29.70,WSW,246,1.0,2.0,58,0.00,,,0.00,Wunderground v.1.13,2013-11-15 20:34:00,
2013-11-15 14:39:00,75.8,59.5,29.70,WSW,246,1.0,1.0,57,0.00,,,0.00,Wunderground v.1.13,2013-11-15 20:39:00,
2013-11-15 14:44:00,76.1,59.8,29.70,WSW,246,1.0,1.0,57,0.00,,,0.00,Wunderground v.1.13,2013-11-15 20:44:00,
2013-11-15 14:50:00,76.0,59.2,29.70,WSW,246,1.0,3.0,56,0.00,,,0.00,Wunderground v.1.13,2013-11-15 20:50:00,
2013-11-15 14:55:00,76.0,59.7,29.69,WSW,243,0.0,0.0,57,0.00,,,0.00,Wunderground v.1.13,2013-11-15 20:55:00,
2013-11-15 15:05:00,76.0,59.7,29.69,WSW,243,0.0,0.0,57,0.00,,,0.00,Wunderground v.1.13,2013-11-15 21:05:00,
2013-11-15 15:14:00,76.3,59.4,29.69,WSW,246,1.0,1.0,56,0.00,,,0.00,Wunderground v.1.13,2013-11-15 21:14:00,
2013-11-15 15:19:00,75.9,59.1,29.69,WSW,246,1.0,1.0,56,0.00,,,0.00,Wunderground v.1.13,2013-11-15 21:19:00,
2013-11-15 15:25:00,75.9,60.1,29.68,WSW,246,0.0,0.0,58,0.00,,,0.00,Wunderground v.1.13,2013-11-15 21:25:00,
2013-11-15 15:30:00,76.2,59.4,29.68,WSW,246,0.0,3.0,56,0.00,,,0.00,Wunderground v.1.13,2013-11-15 21:30:00,
2013-11-15 15:35:00,76.2,59.4,29.68,WSW,246,1.0,1.0,56,0.00,,,0.00,Wunderground v.1.13,2013-11-15 21:35:00,
2013-11-15 15:40:00,75.7,58.9,29.68,WSW,246,1.0,1.0,56,0.00,,,0.00,Wunderground v.1.13,2013-11-15 21:40:00,
2013-11-15 15:45:00,75.6,59.3,29.68,WSW,246,0.0,0.0,57,0.00,,,0.00,Wunderground v.1.13,2013-11-15 21:45:00,
2013-11-15 15:50:00,75.6,59.8,29.68,WSW,246,0.0,0.0,58,0.00,,,0.00,Wunderground v.1.13,2013-11-15 21:50:00,
2013-11-15 15:55:00,75.5,59.7,29.68,WSW,246,0.0,0.0,58,0.00,,,0.00,Wunderground v.1.13,2013-11-15 21:55:00,
2013-11-15 16:00:00,75.2,59.4,29.68,WSW,246,0.0,0.0,58,0.00,,,0.00,Wunderground v.1.13,2013-11-15 22:00:00,
2013-11-15 16:05:00,75.1,59.8,29.68,WSW,246,0.0,0.0,59,0.00,,,0.00,Wunderground v.1.13,2013-11-15 22:05:00,
2013-11-15 16:15:00,74.7,59.4,29.68,WSW,246,0.0,0.0,59,0.00,,,0.00,Wunderground v.1.13,2013-11-15 22:15:00,
2013-11-15 16:20:00,74.5,59.7,29.68,WSW,246,0.0,1.0,60,0.00,,,0.00,Wunderground v.1.13,2013-11-15 22:20:00,
2013-11-15 16:25:00,74.3,59.5,29.68,WSW,246,0.0,0.0,60,0.00,,,0.00,Wunderground v.1.13,2013-11-15 22:25:00,
2013-11-15 16:30:00,73.9,59.6,29.68,WSW,246,0.0,0.0,61,0.00,,,0.00,Wunderground v.1.13,2013-11-15 22:30:00,
2013-11-15 16:35:00,73.8,59.5,29.68,WSW,246,0.0,0.0,61,0.00,,,0.00,Wunderground v.1.13,2013-11-15 22:35:00,
2013-11-15 16:44:00,73.4,59.1,29.68,WSW,244,0.0,0.0,61,0.00,,,0.00,Wunderground v.1.13,2013-11-15 22:44:00,
2013-11-15 16:54:00,72.9,59.1,29.68,WSW,244,0.0,0.0,62,0.00,,,0.00,Wunderground v.1.13,2013-11-15 22:54:00,
2013-11-15 17:00:00,72.6,58.8,29.68,WSW,244,0.0,0.0,62,0.00,,,0.00,Wunderground v.1.13,2013-11-15 23:00:00,
2013-11-15 17:05:00,72.2,58.9,29.68,WSW,244,0.0,0.0,63,0.00,,,0.00,Wunderground v.1.13,2013-11-15 23:05:00,
2013-11-15 17:15:00,71.2,58.4,29.68,WSW,244,0.0,0.0,64,0.00,,,0.00,Wunderground v.1.13,2013-11-15 23:15:00,
2013-11-15 17:20:00,70.7,58.4,29.68,WSW,244,0.0,0.0,65,0.00,,,0.00,Wunderground v.1.13,2013-11-15 23:20:00,
2013-11-15 17:25:00,70.2,58.3,29.68,WSW,244,0.0,0.0,66,0.00,,,0.00,Wunderground v.1.13,2013-11-15 23:25:00,
2013-11-15 17:34:00,68.3,58.1,29.68,WSW,244,0.0,0.0,70,0.00,,,0.00,Wunderground v.1.13,2013-11-15 23:34:00,
2013-11-15 17:39:00,67.0,58.1,29.68,WSW,244,0.0,0.0,73,0.00,,,0.00,Wunderground v.1.13,2013-11-15 23:39:00,
2013-11-15 17:44:00,65.7,57.6,29.68,WSW,244,0.0,0.0,75,0.00,,,0.00,Wunderground v.1.13,2013-11-15 23:44:00,
2013-11-15 17:49:00,64.6,56.9,29.68,WSW,244,0.0,0.0,76,0.00,,,0.00,Wunderground v.1.13,2013-11-15 23:49:00,
2013-11-15 17:54:00,63.7,56.4,29.68,WSW,244,0.0,0.0,77,0.00,,,0.00,Wunderground v.1.13,2013-11-15 23:54:00,
2013-11-15 17:59:00,63.0,56.4,29.68,WSW,244,0.0,0.0,79,0.00,,,0.00,Wunderground v.1.13,2013-11-15 23:59:00,
2013-11-15 18:05:00,62.3,56.0,29.68,WSW,244,0.0,0.0,80,0.00,,,0.00,Wunderground v.1.13,2013-11-16 00:05:00,
2013-11-15 18:14:00,61.3,55.8,29.68,WSW,244,0.0,0.0,82,0.00,,,0.00,Wunderground v.1.13,2013-11-16 00:14:00,
2013-11-15 18:19:00,60.7,55.2,29.68,WSW,244,0.0,0.0,82,0.00,,,0.00,Wunderground v.1.13,2013-11-16 00:19:00,
2013-11-15 18:24:00,60.3,55.1,29.68,WSW,244,0.0,0.0,83,0.00,,,0.00,Wunderground v.1.13,2013-11-16 00:24:00,
2013-11-15 18:29:00,59.8,55.0,29.68,WSW,244,0.0,0.0,84,0.00,,,0.00,Wunderground v.1.13,2013-11-16 00:29:00,
2013-11-15 18:35:00,59.4,54.6,29.68,WSW,244,0.0,0.0,84,0.00,,,0.00,Wunderground v.1.13,2013-11-16 00:35:00,
2013-11-15 18:40:00,59.1,54.6,29.68,WSW,244,0.0,0.0,85,0.00,,,0.00,Wunderground v.1.13,2013-11-16 00:40:00,
2013-11-15 18:45:00,58.8,54.3,29.68,WSW,244,0.0,0.0,85,0.00,,,0.00,Wunderground v.1.13,2013-11-16 00:45:00,
2013-11-15 18:55:00,58.0,53.8,29.68,WSW,244,0.0,0.0,86,0.00,,,0.00,Wunderground v.1.13,2013-11-16 00:55:00,
2013-11-15 19:04:00,57.5,53.7,29.68,WSW,244,0.0,0.0,87,0.00,,,0.00,Wunderground v.1.13,2013-11-16 01:04:00,
2013-11-15 19:09:00,57.3,53.5,29.68,WSW,244,0.0,0.0,87,0.00,,,0.00,Wunderground v.1.13,2013-11-16 01:09:00,
2013-11-15 19:19:00,56.7,53.2,29.68,WSW,244,0.0,0.0,88,0.00,,,0.00,Wunderground v.1.13,2013-11-16 01:19:00,
2013-11-15 19:25:00,56.6,53.1,29.69,WSW,244,0.0,0.0,88,0.00,,,0.00,Wunderground v.1.13,2013-11-16 01:25:00,
2013-11-15 19:30:00,56.4,52.9,29.69,WSW,244,0.0,0.0,88,0.00,,,0.00,Wunderground v.1.13,2013-11-16 01:30:00,
2013-11-15 19:35:00,56.2,53.0,29.69,WSW,244,0.0,0.0,89,0.00,,,0.00,Wunderground v.1.13,2013-11-16 01:35:00,
2013-11-15 19:40:00,56.0,52.8,29.69,WSW,244,0.0,0.0,89,0.00,,,0.00,Wunderground v.1.13,2013-11-16 01:40:00,
2013-11-15 19:45:00,55.8,52.6,29.69,WSW,244,0.0,0.0,89,0.00,,,0.00,Wunderground v.1.13,2013-11-16 01:45:00,
2013-11-15 19:50:00,55.6,52.4,29.70,WSW,244,0.0,0.0,89,0.00,,,0.00,Wunderground v.1.13,2013-11-16 01:50:00,
2013-11-15 19:59:00,55.3,52.4,29.70,WSW,244,0.0,0.0,90,0.00,,,0.00,Wunderground v.1.13,2013-11-16 01:59:00,
2013-11-15 20:05:00,55.1,52.2,29.70,WSW,244,0.0,0.0,90,0.00,,,0.00,Wunderground v.1.13,2013-11-16 02:05:00,
2013-11-15 20:15:00,54.9,52.0,29.70,WSW,244,0.0,0.0,90,0.00,,,0.00,Wunderground v.1.13,2013-11-16 02:15:00,
2013-11-15 20:20:00,54.7,51.8,29.70,WSW,244,0.0,0.0,90,0.00,,,0.00,Wunderground v.1.13,2013-11-16 02:20:00,
2013-11-15 20:30:00,54.5,51.9,29.71,WSW,244,0.0,0.0,91,0.00,,,0.00,Wunderground v.1.13,2013-11-16 02:30:00,
2013-11-15 20:35:00,54.4,51.8,29.71,WSW,244,0.0,0.0,91,0.00,,,0.00,Wunderground v.1.13,2013-11-16 02:35:00,
2013-11-15 20:44:00,54.1,51.5,29.72,WSW,244,0.0,0.0,91,0.00,,,0.00,Wunderground v.1.13,2013-11-16 02:44:00,
2013-11-15 20:49:00,54.0,51.4,29.72,WSW,244,0.0,0.0,91,0.00,,,0.00,Wunderground v.1.13,2013-11-16 02:49:00,
2013-11-15 20:54:00,53.9,51.3,29.72,WSW,244,0.0,0.0,91,0.00,,,0.00,Wunderground v.1.13,2013-11-16 02:54:00,
2013-11-15 20:59:00,53.9,51.3,29.72,WSW,244,0.0,0.0,91,0.00,,,0.00,Wunderground v.1.13,2013-11-16 02:59:00,
2013-11-15 21:04:00,53.9,51.3,29.72,WSW,244,0.0,0.0,91,0.00,,,0.00,Wunderground v.1.13,2013-11-16 03:04:00,
2013-11-15 21:09:00,53.9,51.6,29.72,WSW,244,0.0,0.0,92,0.00,,,0.00,Wunderground v.1.13,2013-11-16 03:09:00,
2013-11-15 21:14:00,54.0,51.7,29.72,WSW,244,0.0,0.0,92,0.00,,,0.00,Wunderground v.1.13,2013-11-16 03:14:00,
2013-11-15 21:19:00,54.0,51.7,29.72,WSW,244,0.0,0.0,92,0.00,,,0.00,Wunderground v.1.13,2013-11-16 03:19:00,
2013-11-15 21:24:00,54.1,51.8,29.72,WSW,244,0.0,0.0,92,0.00,,,0.00,Wunderground v.1.13,2013-11-16 03:24:00,
2013-11-15 21:30:00,54.1,51.8,29.72,WSW,244,0.0,0.0,92,0.00,,,0.00,Wunderground v.1.13,2013-11-16 03:30:00,
2013-11-15 21:40:00,53.9,51.6,29.73,WSW,244,0.0,0.0,92,0.00,,,0.00,Wunderground v.1.13,2013-11-16 03:40:00,
2013-11-15 21:45:00,53.9,51.6,29.73,WSW,244,0.0,0.0,92,0.00,,,0.00,Wunderground v.1.13,2013-11-16 03:45:00,
2013-11-15 21:50:00,53.8,51.5,29.73,WSW,244,0.0,0.0,92,0.00,,,0.00,Wunderground v.1.13,2013-11-16 03:50:00,
2013-11-15 21:55:00,53.7,51.4,29.73,WSW,244,0.0,0.0,92,0.00,,,0.00,Wunderground v.1.13,2013-11-16 03:55:00,
2013-11-15 22:00:00,53.7,51.4,29.73,WSW,244,0.0,0.0,92,0.00,,,0.00,Wunderground v.1.13,2013-11-16 04:00:00,
2013-11-15 22:05:00,53.6,51.3,29.73,WSW,244,0.0,0.0,92,0.00,,,0.00,Wunderground v.1.13,2013-11-16 04:05:00,
2013-11-15 22:15:00,53.3,51.0,29.73,WSW,244,0.0,0.0,92,0.00,,,0.00,Wunderground v.1.13,2013-11-16 04:15:00,
2013-11-15 22:20:00,53.2,51.2,29.73,WSW,244,0.0,0.0,93,0.00,,,0.00,Wunderground v.1.13,2013-11-16 04:20:00,
2013-11-15 22:29:00,53.0,51.0,29.73,WSW,244,0.0,0.0,93,0.00,,,0.00,Wunderground v.1.13,2013-11-16 04:29:00,
2013-11-15 22:34:00,52.9,50.9,29.73,WSW,244,0.0,0.0,93,0.00,,,0.00,Wunderground v.1.13,2013-11-16 04:34:00,
2013-11-15 22:40:00,52.8,50.8,29.73,WSW,244,0.0,0.0,93,0.00,,,0.00,Wunderground v.1.13,2013-11-16 04:40:00,
2013-11-15 22:49:00,52.7,50.7,29.73,WSW,244,0.0,0.0,93,0.00,,,0.00,Wunderground v.1.13,2013-11-16 04:49:00,
2013-11-15 22:59:00,52.7,50.7,29.73,WSW,244,0.0,0.0,93,0.00,,,0.00,Wunderground v.1.13,2013-11-16 04:59:00,
2013-11-15 23:04:00,52.7,50.7,29.74,WSW,244,0.0,0.0,93,0.00,,,0.00,Wunderground v.1.13,2013-11-16 05:04:00,
2013-11-15 23:09:00,52.6,50.6,29.73,WSW,244,0.0,0.0,93,0.00,,,0.00,Wunderground v.1.13,2013-11-16 05:09:00,
2013-11-15 23:14:00,52.6,50.6,29.73,WSW,244,0.0,0.0,93,0.00,,,0.00,Wunderground v.1.13,2013-11-16 05:14:00,
2013-11-15 23:20:00,52.5,50.5,29.73,WSW,244,0.0,0.0,93,0.00,,,0.00,Wunderground v.1.13,2013-11-16 05:20:00,
2013-11-15 23:24:00,52.5,50.5,29.74,WSW,244,0.0,0.0,93,0.00,,,0.00,Wunderground v.1.13,2013-11-16 05:24:00,
2013-11-15 23:30:00,52.4,50.4,29.74,WSW,244,0.0,0.0,93,0.00,,,0.00,Wunderground v.1.13,2013-11-16 05:30:00,
2013-11-15 23:35:00,52.3,50.3,29.74,WSW,244,0.0,0.0,93,0.00,,,0.00,Wunderground v.1.13,2013-11-16 05:35:00,
2013-11-15 23:40:00,52.3,50.3,29.74,WSW,244,0.0,0.0,93,0.00,,,0.00,Wunderground v.1.13,2013-11-16 05:40:00,
2013-11-15 23:45:00,52.2,50.2,29.74,WSW,244,0.0,0.0,93,0.00,,,0.00,Wunderground v.1.13,2013-11-16 05:45:00,
2013-11-15 23:50:00,52.1,50.1,29.73,WSW,244,0.0,0.0,93,0.00,,,0.00,Wunderground v.1.13,2013-11-16 05:50:00,
2013-11-15 23:59:00,52.0,50.0,29.73,WSW,244,0.0,0.0,93,0.00,,,0.00,Wunderground v.1.13,2013-11-16 05:59:00,